Location: Wanzleben
(52.0609°N, 11.4408°E)
Time: 01:13:05
(UTC+00:00)

SJ-11-01 - Pass Details

Date: 18 September 2020
Orbit: 684 x 701 km, 98.0° (Epoch: 23 October)

Event Time Altitude Azimuth Distance (km) Brightness Sun altitude
Rises 18:04:21 0° 164° (SSE) 3,068 7.3 -7.4°
Reaches altitude 10° 18:06:35 10° 165° (SSE) 2,153 6.6 -7.7°
Maximum altitude 18:11:19 88° 251° (WSW) 702 4.4 -8.5°
Drops below altitude 10° 18:16:04 10° 345° (NNW) 2,158 7.2 -9.2°
Sets 18:18:19 0° 346° (NNW) 3,077 8.1 -9.5°
